CFG32CG HEGN-EDDG

Flight info

Callsign CFG32CG
Flight time N/A
Altitude 36000
Route SOLOX1B SOLOX V603 GIDID DCT KAPIT L677 CVO L617 TANSA/N0478F380 UL617 MIL UM749 ROPOX DCT BITLA DCT ENFAR DCT ALELU DCT GORAV DCT TIMID DCT NOVLO DCT BEDOX DCT RADLY DCT VATET DCT LAMSI L604 MOOCE/N0438F240 L604 MAPOX
Aircraft A339/H-SADE1E2E3GHIJ3J5M1P2RWXY/LB2D1

Departure

Time N/A
Airport Hurghada International Airport (HEGN)

Arrival

Time 2026-04-28 21:49
Airport Münster Osnabrück Airport (EDDG)
Time Latitude Longitude Altitude Speed Heading
2026-04-28 19:43 44.72529 17.51992 36150 ft 428 kts 320°
2026-04-28 19:44 44.77203 17.46795 36136 ft 428 kts 320°
2026-04-28 19:44 44.81866 17.41594 36161 ft 428 kts 320°
2026-04-28 19:45 44.86491 17.36426 36144 ft 426 kts 319°
2026-04-28 19:45 44.91148 17.31210 36148 ft 428 kts 319°
2026-04-28 19:46 44.95797 17.25982 36157 ft 428 kts 319°
2026-04-28 19:46 45.00446 17.20738 36138 ft 428 kts 319°
2026-04-28 19:47 45.05099 17.15493 36137 ft 428 kts 319°
2026-04-28 19:47 45.09750 17.10275 36138 ft 425 kts 320°
2026-04-28 19:48 45.14402 17.05041 36150 ft 428 kts 319°
2026-04-28 19:48 45.19043 16.99781 36146 ft 427 kts 319°
2026-04-28 19:49 45.23682 16.94511 36148 ft 427 kts 319°
2026-04-28 19:49 45.28432 16.89424 36146 ft 428 kts 321°
2026-04-28 19:50 45.35574 16.81852 36150 ft 426 kts 320°
2026-04-28 19:51 45.40313 16.76771 36146 ft 427 kts 320°
2026-04-28 19:51 45.45055 16.71688 36149 ft 427 kts 320°
2026-04-28 19:52 45.49795 16.66604 36151 ft 427 kts 320°
2026-04-28 19:52 45.54536 16.61508 36151 ft 427 kts 320°
2026-04-28 19:53 45.59274 16.56404 36147 ft 427 kts 320°
2026-04-28 19:53 45.63984 16.51320 36148 ft 427 kts 320°
2026-04-28 19:54 45.68722 16.46193 36149 ft 427 kts 320°
2026-04-28 19:54 45.73453 16.41062 36153 ft 427 kts 320°
2026-04-28 19:55 45.78189 16.35915 36154 ft 427 kts 320°
2026-04-28 19:55 45.82901 16.30785 36153 ft 424 kts 320°
2026-04-28 19:56 45.87597 16.25657 36154 ft 425 kts 320°
2026-04-28 19:56 45.92298 16.20513 36155 ft 425 kts 320°
2026-04-28 19:57 45.96991 16.15367 36154 ft 425 kts 320°
2026-04-28 19:57 46.01694 16.10220 36155 ft 425 kts 320°
2026-04-28 19:58 46.06383 16.05094 36156 ft 421 kts 320°
2026-04-28 19:58 46.11028 15.99975 36157 ft 421 kts 320°
2026-04-28 19:59 46.15663 15.94838 36157 ft 420 kts 319°
2026-04-28 19:59 46.20293 15.89677 36160 ft 421 kts 319°
2026-04-28 20:00 46.24921 15.84518 36160 ft 420 kts 319°
2026-04-28 20:00 46.29098 15.78687 36179 ft 417 kts 310°
2026-04-28 20:01 46.32977 15.72480 36166 ft 416 kts 310°
2026-04-28 20:01 46.36857 15.66270 36161 ft 416 kts 310°
2026-04-28 20:02 46.40724 15.60028 36157 ft 416 kts 310°
2026-04-28 20:02 46.44579 15.53787 36161 ft 415 kts 310°
2026-04-28 20:03 46.48416 15.47582 36157 ft 416 kts 310°
2026-04-28 20:03 46.52298 15.41276 36159 ft 416 kts 310°
2026-04-28 20:04 46.56125 15.35032 36181 ft 415 kts 310°
2026-04-28 20:04 46.59961 15.28761 36158 ft 416 kts 310°
2026-04-28 20:05 46.63827 15.22440 36161 ft 416 kts 311°
2026-04-28 20:05 46.68157 15.16818 36158 ft 418 kts 318°
2026-04-28 20:06 46.72658 15.11415 36163 ft 419 kts 317°
2026-04-28 20:06 46.77113 15.06026 36165 ft 419 kts 317°
2026-04-28 20:07 46.81591 15.00592 36188 ft 419 kts 317°
2026-04-28 20:07 46.86055 14.95162 36168 ft 417 kts 317°
2026-04-28 20:08 46.90518 14.89721 36144 ft 418 kts 317°
2026-04-28 20:08 46.94979 14.84271 36158 ft 419 kts 317°
2026-04-28 20:09 46.99447 14.78801 36162 ft 419 kts 317°
2026-04-28 20:09 47.03914 14.73321 36159 ft 419 kts 317°
2026-04-28 20:10 47.08380 14.67850 36163 ft 416 kts 317°
2026-04-28 20:10 47.12823 14.62384 36162 ft 417 kts 317°
2026-04-28 20:11 47.17270 14.56892 36158 ft 418 kts 316°
2026-04-28 20:11 47.20969 14.52314 36151 ft 418 kts 316°
2026-04-28 20:12 47.25413 14.46800 36150 ft 418 kts 316°
2026-04-28 20:12 47.29851 14.41283 36142 ft 418 kts 316°
2026-04-28 20:13 47.34285 14.35758 36127 ft 414 kts 316°
2026-04-28 20:13 47.38686 14.30262 36122 ft 415 kts 316°
2026-04-28 20:14 47.43098 14.24740 36111 ft 416 kts 316°
2026-04-28 20:14 47.47511 14.19199 36117 ft 415 kts 316°
2026-04-28 20:15 47.51917 14.13657 36115 ft 416 kts 316°
2026-04-28 20:15 47.56351 14.08161 36114 ft 417 kts 319°
2026-04-28 20:16 47.60809 14.02737 36108 ft 412 kts 316°
2026-04-28 20:16 47.65235 13.97292 36118 ft 414 kts 317°
2026-04-28 20:17 47.69707 13.91882 36116 ft 416 kts 317°
2026-04-28 20:17 47.74191 13.86467 36122 ft 415 kts 317°
2026-04-28 20:18 47.78669 13.81042 36119 ft 415 kts 317°
2026-04-28 20:18 47.83143 13.75608 36150 ft 414 kts 316°
2026-04-28 20:19 47.87623 13.70218 36125 ft 415 kts 317°
2026-04-28 20:19 47.92104 13.64810 36128 ft 415 kts 317°
2026-04-28 20:20 47.96588 13.59328 36134 ft 416 kts 316°
2026-04-28 20:20 48.01040 13.53818 36135 ft 416 kts 316°
2026-04-28 20:21 48.05496 13.48308 36137 ft 416 kts 316°
2026-04-28 20:21 48.09959 13.42803 36138 ft 416 kts 316°
2026-04-28 20:22 48.14426 13.37287 36138 ft 416 kts 316°
2026-04-28 20:22 48.18893 13.31760 36138 ft 419 kts 316°
2026-04-28 20:23 48.23393 13.26229 36134 ft 418 kts 317°
2026-04-28 20:23 48.27880 13.20688 36136 ft 418 kts 316°
2026-04-28 20:24 48.32350 13.15105 36143 ft 418 kts 316°
2026-04-28 20:24 48.36815 13.09514 36133 ft 417 kts 316°
2026-04-28 20:25 48.41280 13.03913 36137 ft 418 kts 316°
2026-04-28 20:25 48.45756 12.98312 36136 ft 419 kts 316°
2026-04-28 20:26 48.50233 12.92686 36136 ft 419 kts 316°
2026-04-28 20:26 48.54698 12.87049 36135 ft 419 kts 316°
2026-04-28 20:27 48.59132 12.81438 36168 ft 419 kts 316°
2026-04-28 20:27 48.63634 12.75729 36137 ft 419 kts 315°
2026-04-28 20:28 48.68070 12.70090 36137 ft 419 kts 315°
2026-04-28 20:28 48.72533 12.64403 36138 ft 419 kts 315°
2026-04-28 20:29 48.76995 12.58710 36139 ft 419 kts 315°
2026-04-28 20:29 48.81455 12.53003 36140 ft 419 kts 315°
2026-04-28 20:30 48.85912 12.47285 36153 ft 422 kts 315°
2026-04-28 20:30 48.90415 12.41490 36143 ft 424 kts 315°
2026-04-28 20:31 48.94898 12.35714 36142 ft 424 kts 315°
2026-04-28 20:31 48.99406 12.29878 36145 ft 424 kts 315°
2026-04-28 20:32 49.03886 12.24036 36143 ft 424 kts 315°
2026-04-28 20:32 49.08370 12.18196 36156 ft 424 kts 315°
2026-04-28 20:33 49.12857 12.12328 36163 ft 429 kts 315°
2026-04-28 20:33 49.17410 12.06381 36145 ft 430 kts 315°
2026-04-28 20:34 49.21975 12.00434 36155 ft 433 kts 315°
2026-04-28 20:34 49.26543 11.94431 36163 ft 433 kts 315°
2026-04-28 20:35 49.31116 11.88409 36155 ft 433 kts 315°
2026-04-28 20:35 49.35688 11.82393 36159 ft 433 kts 315°
2026-04-28 20:36 49.40272 11.76339 36154 ft 436 kts 315°
2026-04-28 20:36 49.44860 11.70277 36157 ft 435 kts 316°
2026-04-28 20:37 49.49476 11.64182 36159 ft 439 kts 316°
2026-04-28 20:37 49.54098 11.58052 36160 ft 438 kts 316°
2026-04-28 20:38 49.58532 11.51650 36142 ft 436 kts 310°
2026-04-28 20:38 49.62757 11.44922 36163 ft 437 kts 311°
2026-04-28 20:39 49.67018 11.38176 36145 ft 439 kts 312°
2026-04-28 20:39 49.71269 11.31408 36148 ft 440 kts 311°
2026-04-28 20:40 49.75502 11.24549 36150 ft 440 kts 311°
2026-04-28 20:40 49.79688 11.17642 36153 ft 440 kts 310°
2026-04-28 20:41 49.83840 11.10680 36149 ft 440 kts 310°
2026-04-28 20:41 49.87989 11.03703 36155 ft 440 kts 310°
2026-04-28 20:42 49.92142 10.96715 36156 ft 442 kts 311°
2026-04-28 20:42 49.96285 10.89740 36156 ft 442 kts 310°
2026-04-28 20:43 50.00462 10.82713 36157 ft 442 kts 310°
2026-04-28 20:43 50.04668 10.75645 36161 ft 442 kts 311°
2026-04-28 20:44 50.08892 10.68668 36163 ft 443 kts 311°
2026-04-28 20:44 50.13130 10.61704 36168 ft 443 kts 311°
2026-04-28 20:45 50.17359 10.54705 36187 ft 445 kts 311°
2026-04-28 20:45 50.21573 10.47630 36171 ft 445 kts 310°
2026-04-28 20:46 50.25735 10.40559 36174 ft 445 kts 310°
2026-04-28 20:46 50.29884 10.33389 36173 ft 445 kts 309°
2026-04-28 20:47 50.33955 10.26105 36180 ft 444 kts 308°
2026-04-28 20:47 50.37953 10.18727 36176 ft 445 kts 308°
2026-04-28 20:48 50.41900 10.11226 36182 ft 446 kts 307°
2026-04-28 20:48 50.45782 10.03635 36186 ft 447 kts 307°
2026-04-28 20:49 50.49612 9.95944 36185 ft 447 kts 306°
2026-04-28 20:49 50.53404 9.88206 36199 ft 447 kts 306°
2026-04-28 20:50 50.57210 9.80479 36202 ft 447 kts 306°
2026-04-28 20:50 50.61027 9.72700 36195 ft 450 kts 306°
2026-04-28 20:51 50.64837 9.64885 36198 ft 449 kts 306°
2026-04-28 20:51 50.68636 9.57049 36210 ft 450 kts 306°
2026-04-28 20:52 50.72421 9.49207 36204 ft 450 kts 306°
2026-04-28 20:52 50.76204 9.41344 36204 ft 450 kts 306°
2026-04-28 20:53 50.81901 9.29461 36219 ft 452 kts 306°
2026-04-28 20:53 50.85695 9.21520 36218 ft 453 kts 306°
2026-04-28 20:54 50.89490 9.13564 36217 ft 453 kts 306°
2026-04-28 20:54 50.93284 9.05601 36223 ft 453 kts 306°
2026-04-28 20:55 50.96437 8.98982 36223 ft 453 kts 306°
2026-04-28 20:55 51.00231 8.91009 36224 ft 454 kts 306°
2026-04-28 20:56 51.04023 8.83033 35937 ft 450 kts 306°
2026-04-28 20:56 51.05908 8.79067 35346 ft 449 kts 306°
2026-04-28 20:56 51.07797 8.75094 34620 ft 450 kts 306°
2026-04-28 20:57 51.09680 8.71133 33789 ft 450 kts 306°
2026-04-28 20:57 51.11569 8.67161 32884 ft 449 kts 306°
2026-04-28 20:57 51.13451 8.63205 31967 ft 448 kts 306°
2026-04-28 20:57 51.15439 8.59386 31015 ft 449 kts 313°
2026-04-28 20:58 51.17832 8.56178 29996 ft 452 kts 323°
2026-04-28 20:58 51.20612 8.53772 28657 ft 460 kts 335°
2026-04-28 20:58 51.23696 8.52348 27865 ft 460 kts 347°
2026-04-28 20:58 51.26801 8.51609 27610 ft 441 kts 349°
2026-04-28 20:59 51.29780 8.51003 27425 ft 424 kts 350°
2026-04-28 20:59 51.32653 8.50397 27169 ft 411 kts 349°
2026-04-28 20:59 51.35466 8.49763 26646 ft 406 kts 348°
2026-04-28 20:59 51.38261 8.49096 25836 ft 408 kts 349°
2026-04-28 21:00 51.41092 8.48397 24802 ft 416 kts 349°
2026-04-28 21:00 51.43977 8.47678 23901 ft 421 kts 349°
2026-04-28 21:00 51.46861 8.46963 23112 ft 419 kts 349°
2026-04-28 21:00 51.49729 8.46251 22375 ft 415 kts 350°
2026-04-28 21:01 51.52551 8.45551 21874 ft 405 kts 349°
2026-04-28 21:01 51.55292 8.44873 21508 ft 393 kts 349°
2026-04-28 21:01 51.57970 8.44208 20903 ft 387 kts 350°
2026-04-28 21:01 51.60632 8.43543 20023 ft 388 kts 351°
2026-04-28 21:02 51.63310 8.42869 19148 ft 391 kts 351°
2026-04-28 21:02 51.66003 8.42193 18253 ft 392 kts 351°
2026-04-28 21:02 51.68655 8.41531 17277 ft 388 kts 351°
2026-04-28 21:02 51.71286 8.40874 16358 ft 377 kts 351°
2026-04-28 21:03 51.73846 8.40235 15512 ft 368 kts 351°
2026-04-28 21:03 51.76295 8.39618 15201 ft 344 kts 352°
2026-04-28 21:03 51.78577 8.39043 14977 ft 321 kts 352°
2026-04-28 21:03 51.80707 8.38507 14785 ft 299 kts 352°
2026-04-28 21:04 51.82691 8.38007 14616 ft 278 kts 352°
2026-04-28 21:04 51.84538 8.37541 14426 ft 260 kts 352°
2026-04-28 21:04 51.86302 8.37100 13927 ft 255 kts 352°
2026-04-28 21:04 51.88053 8.36662 13285 ft 254 kts 352°
2026-04-28 21:05 51.89786 8.36221 12781 ft 249 kts 353°
2026-04-28 21:05 51.91496 8.35786 12486 ft 251 kts 353°
2026-04-28 21:05 51.93229 8.35354 12257 ft 252 kts 353°
2026-04-28 21:05 51.94962 8.34919 12014 ft 251 kts 353°
2026-04-28 21:06 51.96677 8.34488 11728 ft 249 kts 353°
2026-04-28 21:06 51.98380 8.34052 11224 ft 248 kts 354°
2026-04-28 21:06 52.00098 8.33603 10486 ft 254 kts 354°
2026-04-28 21:06 52.01872 8.33153 9789 ft 257 kts 354°
2026-04-28 21:07 52.03647 8.32704 8975 ft 261 kts 354°
2026-04-28 21:07 52.05469 8.32241 8187 ft 265 kts 355°
2026-04-28 21:07 52.07261 8.31781 7723 ft 256 kts 354°
2026-04-28 21:07 52.08996 8.31326 7268 ft 248 kts 355°
2026-04-28 21:08 52.10678 8.30901 6832 ft 242 kts 355°
2026-04-28 21:08 52.12322 8.30493 6458 ft 233 kts 355°
2026-04-28 21:08 52.13885 8.30095 6345 ft 232 kts 356°
2026-04-28 21:08 52.15529 8.29691 6276 ft 240 kts 356°
2026-04-28 21:09 52.17172 8.29210 6244 ft 243 kts 346°
2026-04-28 21:09 52.18636 8.27780 6276 ft 252 kts 317°
2026-04-28 21:09 52.19555 8.25316 6284 ft 261 kts 289°
2026-04-28 21:09 52.19701 8.22406 6282 ft 260 kts 259°
2026-04-28 21:10 52.19104 8.19685 6269 ft 260 kts 240°
2026-04-28 21:10 52.18264 8.17089 6283 ft 258 kts 240°
2026-04-28 21:10 52.17479 8.14449 6273 ft 258 kts 244°
2026-04-28 21:10 52.16808 8.11749 6276 ft 258 kts 248°
2026-04-28 21:11 52.16222 8.09014 6261 ft 253 kts 250°
2026-04-28 21:11 52.15686 8.06278 6276 ft 258 kts 251°
2026-04-28 21:11 52.15158 8.03491 6290 ft 252 kts 251°
2026-04-28 21:11 52.14664 8.00869 6268 ft 231 kts 251°
2026-04-28 21:12 52.14183 7.98331 6288 ft 241 kts 251°
2026-04-28 21:12 52.13685 7.95727 6186 ft 239 kts 251°
2026-04-28 21:12 52.13194 7.93180 6037 ft 230 kts 251°
2026-04-28 21:12 52.12709 7.90650 5938 ft 239 kts 251°
2026-04-28 21:13 52.12214 7.88087 5844 ft 236 kts 251°
2026-04-28 21:13 52.11729 7.85581 5646 ft 231 kts 251°
2026-04-28 21:13 52.11245 7.83080 5247 ft 234 kts 251°
2026-04-28 21:13 52.10758 7.80573 4949 ft 230 kts 251°
2026-04-28 21:14 52.10272 7.78082 4590 ft 231 kts 251°
2026-04-28 21:14 52.09782 7.75577 4232 ft 232 kts 250°
2026-04-28 21:14 52.09290 7.73086 3957 ft 230 kts 251°
2026-04-28 21:14 52.08814 7.70642 3772 ft 223 kts 251°
2026-04-28 21:15 52.08352 7.68287 3670 ft 213 kts 250°
2026-04-28 21:15 52.07915 7.66049 3486 ft 205 kts 250°
2026-04-28 21:15 52.07485 7.63831 3175 ft 206 kts 251°
2026-04-28 21:15 52.07058 7.61624 3063 ft 207 kts 250°
2026-04-28 21:16 52.06620 7.59367 2972 ft 208 kts 249°
2026-04-28 21:16 52.06183 7.57164 2962 ft 200 kts 250°
2026-04-28 21:16 52.05755 7.55033 2967 ft 197 kts 250°
2026-04-28 21:16 52.05325 7.52917 2933 ft 195 kts 250°
2026-04-28 21:17 52.04907 7.50794 2942 ft 201 kts 250°
2026-04-28 21:17 52.04492 7.48651 2933 ft 196 kts 251°
2026-04-28 21:17 52.04070 7.46541 2926 ft 196 kts 250°
2026-04-28 21:17 52.03652 7.44439 2934 ft 198 kts 250°
2026-04-28 21:18 52.03223 7.42291 2905 ft 199 kts 251°
2026-04-28 21:18 52.02816 7.40201 2919 ft 196 kts 252°
2026-04-28 21:18 52.02410 7.38071 2946 ft 199 kts 250°
2026-04-28 21:18 52.01980 7.35950 2936 ft 196 kts 250°
2026-04-28 21:19 52.01559 7.33826 2897 ft 198 kts 250°
2026-04-28 21:19 52.01126 7.31684 2935 ft 204 kts 250°
2026-04-28 21:19 52.00693 7.29560 2924 ft 192 kts 250°
2026-04-28 21:19 52.00270 7.27402 2912 ft 203 kts 251°
2026-04-28 21:20 51.99842 7.25282 2920 ft 200 kts 250°
2026-04-28 21:20 51.99404 7.23169 2915 ft 194 kts 250°
2026-04-28 21:20 51.98972 7.21082 2901 ft 196 kts 250°
2026-04-28 21:20 51.98555 7.19011 3063 ft 197 kts 250°
2026-04-28 21:21 51.98316 7.16824 3210 ft 197 kts 276°
2026-04-28 21:21 51.98818 7.14797 3323 ft 191 kts 315°
2026-04-28 21:21 51.99876 7.13731 3343 ft 178 kts 355°
2026-04-28 21:21 52.01039 7.13923 3337 ft 165 kts 31°
2026-04-28 21:22 52.01901 7.15072 3330 ft 160 kts 57°
2026-04-28 21:22 52.02421 7.16627 3328 ft 159 kts 70°
2026-04-28 21:22 52.02790 7.18314 3318 ft 158 kts 73°
2026-04-28 21:22 52.03027 7.19448 3329 ft 157 kts 73°
2026-04-28 21:23 52.03499 7.21658 3325 ft 152 kts 72°
2026-04-28 21:23 52.03865 7.23308 3384 ft 157 kts 72°
2026-04-28 21:23 52.04226 7.24978 3380 ft 157 kts 72°
2026-04-28 21:23 52.04580 7.26630 3329 ft 154 kts 72°
2026-04-28 21:24 52.04928 7.28280 3328 ft 155 kts 73°
2026-04-28 21:24 52.05282 7.29939 3322 ft 157 kts 73°
2026-04-28 21:24 52.05637 7.31604 3323 ft 156 kts 72°
2026-04-28 21:24 52.05994 7.33269 3335 ft 156 kts 73°
2026-04-28 21:25 52.06345 7.34939 3339 ft 155 kts 73°
2026-04-28 21:25 52.06697 7.36608 3337 ft 158 kts 73°
2026-04-28 21:25 52.07054 7.38267 3339 ft 155 kts 73°
2026-04-28 21:25 52.07417 7.39959 3342 ft 159 kts 73°
2026-04-28 21:26 52.07763 7.41625 3325 ft 147 kts 73°
2026-04-28 21:26 52.08098 7.43181 3216 ft 146 kts 74°
2026-04-28 21:26 52.08426 7.44734 3013 ft 143 kts 74°
2026-04-28 21:26 52.08752 7.46280 2836 ft 144 kts 74°
2026-04-28 21:27 52.09065 7.47741 2601 ft 145 kts 74°
2026-04-28 21:27 52.09397 7.49322 2448 ft 142 kts 72°
2026-04-28 21:27 52.09716 7.50796 2299 ft 139 kts 74°
2026-04-28 21:27 52.10026 7.52273 2108 ft 137 kts 72°
2026-04-28 21:28 52.10345 7.53767 1916 ft 139 kts 72°
2026-04-28 21:28 52.10658 7.55243 1732 ft 139 kts 73°
2026-04-28 21:28 52.10971 7.56738 1515 ft 138 kts 72°
2026-04-28 21:28 52.11282 7.58183 1340 ft 133 kts 72°
2026-04-28 21:29 52.11562 7.59518 1165 ft 122 kts 71°
2026-04-28 21:29 52.11838 7.60819 1008 ft 119 kts 72°
2026-04-28 21:29 52.12117 7.62148 836 ft 130 kts 71°
2026-04-28 21:29 52.12430 7.63591 656 ft 131 kts 71°
2026-04-28 21:30 52.12704 7.64917 470 ft 125 kts 70°
2026-04-28 21:30 52.13051 7.66312 251 ft 135 kts 58°
2026-04-28 21:30 52.13274 7.67763 227 ft 133 kts 71°
2026-04-28 21:30 52.13565 7.69186 857 ft 120 kts 56°
2026-04-28 21:31 52.14083 7.70161 1727 ft 120 kts 36°
2026-04-28 21:31 52.14670 7.71143 2377 ft 132 kts 56°
2026-04-28 21:31 52.15205 7.72572 2822 ft 163 kts 65°
2026-04-28 21:31 52.15731 7.74289 3541 ft 177 kts 69°
2026-04-28 21:32 52.16014 7.76428 3730 ft 202 kts 86°
2026-04-28 21:32 52.16086 7.78605 3788 ft 183 kts 87°
2026-04-28 21:32 52.16146 7.80584 3780 ft 171 kts 96°
2026-04-28 21:32 52.16205 7.82538 3787 ft 175 kts 70°
2026-04-28 21:33 52.16740 7.84333 3790 ft 176 kts 66°
2026-04-28 21:33 52.17208 7.86146 3798 ft 173 kts 72°
2026-04-28 21:33 52.17587 7.88010 3794 ft 174 kts 69°
2026-04-28 21:33 52.17847 7.89942 3668 ft 180 kts 91°
2026-04-28 21:34 52.17533 7.91984 3419 ft 197 kts 118°
2026-04-28 21:34 52.16420 7.93282 4078 ft 207 kts 153°
2026-04-28 21:34 52.15012 7.94133 4204 ft 217 kts 155°
2026-04-28 21:34 52.13509 7.94418 4458 ft 231 kts 187°
2026-04-28 21:35 52.12039 7.93310 4803 ft 233 kts 204°
2026-04-28 21:35 52.10934 7.91303 5003 ft 248 kts 225°
2026-04-28 21:35 52.09881 7.89118 4695 ft 241 kts 222°
2026-04-28 21:35 52.08694 7.87223 4509 ft 240 kts 210°
2026-04-28 21:36 52.07679 7.85063 4692 ft 246 kts 234°
2026-04-28 21:36 52.07043 7.82511 4807 ft 243 kts 252°
2026-04-28 21:36 52.06559 7.79872 4734 ft 244 kts 254°
2026-04-28 21:36 52.06074 7.77227 4643 ft 244 kts 239°
2026-04-28 21:37 52.05514 7.74615 4643 ft 246 kts 239°
2026-04-28 21:37 52.04817 7.72066 4311 ft 245 kts 239°
2026-04-28 21:37 52.04058 7.69654 4445 ft 241 kts 232°
2026-04-28 21:37 52.03326 7.67194 4881 ft 241 kts 236°
2026-04-28 21:38 52.02747 7.64661 5029 ft 242 kts 248°
2026-04-28 21:38 52.02065 7.62164 4714 ft 242 kts 232°
2026-04-28 21:38 52.00857 7.60367 4304 ft 232 kts 209°
2026-04-28 21:38 51.99934 7.58364 4532 ft 232 kts 234°
2026-04-28 21:39 51.99116 7.55996 4720 ft 241 kts 231°
2026-04-28 21:39 51.98341 7.53587 4953 ft 242 kts 241°
2026-04-28 21:39 51.97730 7.51057 5059 ft 239 kts 246°
2026-04-28 21:39 51.97213 7.48465 5183 ft 242 kts 248°
2026-04-28 21:40 51.96789 7.45817 5080 ft 241 kts 256°
2026-04-28 21:40 51.96459 7.43154 5062 ft 242 kts 253°
2026-04-28 21:40 51.96254 7.40464 5177 ft 241 kts 278°
2026-04-28 21:40 51.96858 7.37955 5431 ft 237 kts 306°
2026-04-28 21:41 51.97939 7.36020 5658 ft 227 kts 318°
2026-04-28 21:41 51.99044 7.34357 5693 ft 206 kts 321°
2026-04-28 21:41 52.00081 7.32923 5661 ft 189 kts 325°
2026-04-28 21:41 52.01112 7.31687 5488 ft 180 kts 329°
2026-04-28 21:42 52.02113 7.30492 5343 ft 181 kts 327°
2026-04-28 21:42 52.03216 7.29516 5014 ft 176 kts 352°
2026-04-28 21:42 52.04352 7.29608 4872 ft 161 kts 26°
2026-04-28 21:42 52.05220 7.30666 4712 ft 152 kts 55°
2026-04-28 21:43 52.05730 7.32142 4556 ft 152 kts 69°
2026-04-28 21:43 52.05972 7.33184 4436 ft 149 kts 72°
2026-04-28 21:43 52.06303 7.34769 4267 ft 151 kts 72°
2026-04-28 21:43 52.06647 7.36369 4070 ft 148 kts 73°
2026-04-28 21:44 52.06981 7.37945 3896 ft 151 kts 73°
2026-04-28 21:44 52.07323 7.39542 3692 ft 147 kts 73°
2026-04-28 21:44 52.07657 7.41112 3504 ft 147 kts 73°
2026-04-28 21:44 52.07986 7.42652 3306 ft 143 kts 74°
2026-04-28 21:45 52.08311 7.44196 3109 ft 144 kts 74°
2026-04-28 21:45 52.08637 7.45723 2921 ft 145 kts 74°
2026-04-28 21:45 52.08964 7.47264 2722 ft 142 kts 73°
2026-04-28 21:45 52.09284 7.48769 2531 ft 142 kts 74°
2026-04-28 21:46 52.09601 7.50262 2352 ft 137 kts 73°
2026-04-28 21:46 52.09912 7.51741 2165 ft 142 kts 73°
2026-04-28 21:46 52.10229 7.53219 1964 ft 135 kts 73°
2026-04-28 21:46 52.10539 7.54698 1770 ft 139 kts 72°
2026-04-28 21:47 52.10854 7.56161 1595 ft 137 kts 72°
2026-04-28 21:47 52.11156 7.57599 1397 ft 136 kts 72°
2026-04-28 21:47 52.11471 7.59074 1208 ft 135 kts 71°
2026-04-28 21:47 52.11791 7.60524 1064 ft 141 kts 70°
2026-04-28 21:48 52.12110 7.61980 951 ft 130 kts 71°
2026-04-28 21:48 52.12395 7.63344 629 ft 126 kts 71°
2026-04-28 21:48 52.12678 7.64789 516 ft 132 kts 69°
2026-04-28 21:48 52.12979 7.66189 333 ft 137 kts 72°
2026-04-28 21:49 52.13287 7.67633 179 ft 129 kts 71°
2026-04-28 21:49 52.13521 7.68736 171 ft 74 kts 70°
2026-04-28 21:49 52.13643 7.69317 173 ft 43 kts 71°
2026-04-28 21:49 52.13735 7.69762 172 ft 38 kts 71°
2026-04-28 21:50 52.13751 7.70000 170 ft 2 kts 131°
2026-04-28 21:50 52.13711 7.70028 168 ft 13 kts 160°
2026-04-28 21:50 52.13705 7.70031 168 ft 0 kts 160°
2026-04-28 21:51 52.13689 7.70040 168 ft 5 kts 161°
2026-04-28 21:51 52.13652 7.70043 168 ft 6 kts 188°
2026-04-28 21:51 52.13616 7.69993 167 ft 8 kts 232°
2026-04-28 21:51 52.13592 7.69908 169 ft 8 kts 248°
2026-04-28 21:52 52.13574 7.69830 170 ft 6 kts 250°
2026-04-28 21:52 52.13552 7.69731 171 ft 12 kts 250°
2026-04-28 21:52 52.13522 7.69583 170 ft 16 kts 252°
2026-04-28 21:52 52.13487 7.69392 170 ft 19 kts 253°
2026-04-28 21:53 52.13434 7.69169 167 ft 24 kts 248°
2026-04-28 21:53 52.13379 7.68911 170 ft 24 kts 252°
2026-04-28 21:53 52.13327 7.68635 171 ft 25 kts 248°
2026-04-28 21:53 52.13278 7.68419 173 ft 8 kts 250°
2026-04-28 21:54 52.13260 7.68363 172 ft 2 kts 234°
2026-04-28 21:54 52.13237 7.68346 172 ft 3 kts 197°
2026-04-28 21:54 52.13214 7.68348 171 ft 5 kts 178°
2026-04-28 21:54 52.13155 7.68374 170 ft 13 kts 156°
2026-04-28 21:55 52.13110 7.68482 170 ft 10 kts 107°
2026-04-28 21:55 52.13104 7.68583 170 ft 8 kts 92°
2026-04-28 21:55 52.13102 7.68661 170 ft 7 kts 92°
2026-04-28 21:55 52.13110 7.68759 170 ft 12 kts 73°
2026-04-28 21:56 52.13144 7.68918 170 ft 18 kts 72°
2026-04-28 21:56 52.13156 7.68983 170 ft 8 kts 73°
2026-04-28 21:56 52.13164 7.69026 170 ft 0 kts 73°
2026-04-28 21:56 52.13166 7.69062 170 ft 4 kts 84°
2026-04-28 21:57 52.13173 7.69094 161 ft 2 kts 71°
2026-04-28 21:57 52.13180 7.69110 144 ft 3 kts 56°
2026-04-28 21:57 52.13194 7.69127 179 ft 2 kts 38°
2026-04-28 21:57 52.13202 7.69130 175 ft 2 kts 20°
2026-04-28 21:58 52.13210 7.69130 171 ft 0 kts
2026-04-28 21:58 52.13217 7.69135 171 ft 3 kts 19°
2026-04-28 21:58 52.13224 7.69138 171 ft 0 kts 15°
2026-04-28 21:58 52.13229 7.69134 171 ft 0 kts 356°
2026-04-28 21:59 52.13233 7.69129 171 ft 0 kts 341°
2026-04-28 21:59 52.13242 7.69125 171 ft 4 kts 345°
2026-04-28 21:59 52.13265 7.69113 171 ft 0 kts 341°